Location: *
(44.3526°S, 44.9014°W)
Time: 23:47:38
(UTC+00:00)

Cosmos 1606 - Pass Details

Date: 13 May 2025
Orbit: 380 x 394 km, 82.5° (Epoch: 14 June)

Event Time Altitude Azimuth Distance (km) Brightness Sun altitude
Rises 20:17:37 0° 196° (SSW) 2,338 6.0 -6.3°
Reaches altitude 10° 20:19:42 10° 203° (SSW) 1,475 5.1 -6.7°
Maximum altitude 20:22:43 39° 274° (W) 625 3.8 -7.2°
Drops below altitude 10° 20:25:43 10° 344° (NNW) 1,465 5.5 -7.7°
Sets 20:27:48 0° 352° (N) 2,320 6.4 -8.0°
